Weather History for Ogden, UT

Change the Weather History Date:

Saturday, January 19, 2013

  Actual Average Record
Temperature  
Mean Temperature 11 °F -  
Max Temperature 16 °F 37 °F 50 °F (1950)
Min Temperature 6 °F 19 °F -15 °F (1949)
Degree Days  
Heating Degree Days 54    
Moisture  
Dew Point 8 °F    
Average Humidity 84    
Maximum Humidity 92    
Minimum Humidity 73    
Precipitation  
Precipitation 0.00 in - - ()
Sea Level Pressure  
Sea Level Pressure 30.59 in    
Wind  
Wind Speed 2 mph (NW)    
Max Wind Speed 7 mph    
Max Gust Speed -    
Visibility 3 miles    
Events Snow    
Averages and records for this station are not official NWS values.
T = Trace of Precipitation, MM = Missing Value Source: NWS Daily Summary

Daily Weather History Graph

Daily Weather History Graph

Search for Another Location

Airport:

Trip Planner

Search our weather history database for the weather conditions in past years. The results will help you decide how hot, cold, wet, or windy it might be!

Date:

Astronomy

Jan. 19, 2013 Rise Set
Actual Time 7:49 AM MST 5:29 PM MST
Civil Twilight 7:19 AM MST 5:59 PM MST
Nautical Twilight 6:45 AM MST 6:32 PM MST
Astronomical Twilight 6:12 AM MST 7:05 PM MST
Moon 11:58 AM MST (1/19) 1:26 AM MST (1/19)
Length of Visible Light 10h 40m
Length of Day
9h 40m
First Quarter, 58% of the Moon is Illuminated
Jan 19
First Quarter
Jan 26
Full
Feb 3
Last Quarter
Feb 10
New
Feb 17
First Quarter

Hourly Weather History & Observations

Time (MST) Temp. Windchill Dew Point Humidity Pressure Visibility Wind Dir Wind Speed Gust Speed Precip Events Conditions
12:53 AM 12.0 °F - 9.0 °F 88% 30.65 in 4.0 mi Calm Calm - N/A   Overcast
1:53 AM 10.9 °F 1.4 °F 7.0 °F 84% 30.65 in 4.0 mi South 5.8 mph - N/A   Overcast
2:53 AM 10.9 °F - 8.1 °F 88% 30.66 in 4.0 mi Calm Calm - N/A   Overcast
3:53 AM 12.0 °F - 9.0 °F 88% 30.66 in 4.0 mi Calm Calm - N/A   Overcast
4:53 AM 12.0 °F - 8.1 °F 84% 30.67 in 4.0 mi Calm Calm - N/A   Overcast
5:13 AM 10.4 °F 2.2 °F 6.8 °F 85% 30.50 in 2.5 mi South 4.6 mph - N/A   Overcast
5:39 AM 10.4 °F - 8.6 °F 92% 30.51 in 3.0 mi Calm Calm - N/A   Overcast
5:48 AM 12.2 °F - 6.8 °F 79% 30.51 in 2.0 mi Calm Calm - 0.00 in Snow Light Snow
5:53 AM 12.0 °F - 7.0 °F 80% 30.69 in 1.8 mi Calm Calm - 0.00 in Snow Light Snow
6:15 AM 10.4 °F - 6.8 °F 85% 30.51 in 1.8 mi Calm Calm - 0.00 in Snow Light Snow
6:26 AM 10.4 °F - 6.8 °F 85% 30.51 in 2.5 mi Calm Calm - 0.00 in   Overcast
6:35 AM 8.6 °F 2.0 °F 5.0 °F 85% 30.52 in 3.0 mi South 3.5 mph - 0.00 in   Overcast
6:53 AM 9.0 °F 2.4 °F 5.0 °F 84% 30.70 in 4.0 mi SSE 3.5 mph - 0.00 in   Overcast
7:37 AM 6.8 °F -2.0 °F 3.2 °F 85% 30.53 in 5.0 mi South 4.6 mph - N/A   Scattered Clouds
7:46 AM 6.8 °F -3.5 °F 3.2 °F 85% 30.53 in 4.0 mi South 5.8 mph - N/A   Mostly Cloudy
7:53 AM 7.0 °F -1.7 °F 3.0 °F 84% 30.73 in 4.0 mi SSE 4.6 mph - N/A   Mostly Cloudy
8:53 AM 8.1 °F - 5.0 °F 87% 30.75 in 3.0 mi Calm Calm - N/A   Overcast
9:03 AM 8.6 °F - 5.0 °F 85% 30.55 in 2.0 mi Calm Calm - N/A   Overcast
9:53 AM 10.9 °F - 8.1 °F 88% 30.75 in 3.0 mi Calm Calm - N/A   Overcast
10:30 AM 15.8 °F - 10.4 °F 79% 30.57 in 3.0 mi Calm Calm - N/A   Haze
10:53 AM 15.1 °F - 9.0 °F 77% 30.74 in 3.0 mi Calm Calm - N/A   Haze
11:00 AM 15.8 °F - 10.4 °F 79% 30.57 in 3.0 mi Calm Calm - N/A   Haze
11:07 AM 15.8 °F - 8.6 °F 73% 30.57 in 3.0 mi Calm Calm - N/A   Haze
11:23 AM 15.8 °F - 8.6 °F 73% 30.56 in 4.0 mi Calm Calm - N/A   Haze
11:37 AM 14.0 °F 6.5 °F 8.6 °F 79% 30.56 in 2.5 mi NNW 4.6 mph - N/A   Haze
11:53 AM 15.1 °F 7.7 °F 9.0 °F 77% 30.71 in 3.0 mi NNW 4.6 mph - N/A   Haze
12:53 PM 16.0 °F 10.4 °F 10.0 °F 77% 30.69 in 4.0 mi NW 3.5 mph - N/A   Haze
1:53 PM 16.0 °F 8.8 °F 10.0 °F 77% 30.68 in 5.0 mi NW 4.6 mph - N/A   Haze
2:53 PM 16.0 °F 10.4 °F 10.0 °F 77% 30.67 in 4.0 mi NNW 3.5 mph - N/A   Haze
3:53 PM 16.0 °F 7.4 °F 10.0 °F 77% 30.65 in 3.0 mi NW 5.8 mph - N/A   Haze
4:10 PM 14.0 °F 3.9 °F 8.6 °F 79% 30.49 in 2.5 mi NW 6.9 mph - N/A   Haze
4:20 PM 14.0 °F 3.9 °F 8.6 °F 79% 30.49 in 3.0 mi NW 6.9 mph - N/A   Haze
4:27 PM 14.0 °F 5.1 °F 8.6 °F 79% 30.49 in 2.5 mi NW 5.8 mph - N/A   Haze
4:36 PM 14.0 °F 3.9 °F 8.6 °F 79% 30.49 in 3.0 mi NW 6.9 mph - N/A   Haze
4:53 PM 12.0 °F 1.5 °F 8.1 °F 84% 30.67 in 3.0 mi NW 6.9 mph - N/A   Clear
5:13 PM 10.4 °F 0.8 °F 6.8 °F 85% 30.49 in 2.5 mi NNW 5.8 mph - N/A   Partly Cloudy
5:29 PM 10.4 °F 2.2 °F 6.8 °F 85% 30.49 in 2.5 mi NNW 4.6 mph - N/A   Mostly Cloudy
5:45 PM 10.4 °F 2.2 °F 6.8 °F 85% 30.49 in 3.0 mi NNW 4.6 mph - N/A   Overcast
5:53 PM 10.9 °F 2.9 °F 8.1 °F 88% 30.67 in 3.0 mi NNW 4.6 mph - N/A   Overcast
6:10 PM 12.2 °F 4.3 °F 8.6 °F 85% 30.49 in 2.5 mi NW 4.6 mph - N/A   Overcast
6:20 PM 12.2 °F 6.1 °F 10.4 °F 92% 30.49 in 1.8 mi NW 3.5 mph - N/A   Overcast
6:27 PM 12.2 °F 6.1 °F 10.4 °F 92% 30.50 in 2.0 mi NW 3.5 mph - N/A   Overcast
6:53 PM 12.0 °F - 10.0 °F 92% 30.68 in 2.0 mi Calm Calm - N/A   Overcast
7:20 PM 12.2 °F - 8.6 °F 85% 30.50 in 2.5 mi Calm Calm - N/A   Overcast
7:38 PM 12.2 °F - 8.6 °F 85% 30.49 in 3.0 mi Calm Calm - 0.00 in   Overcast
7:53 PM 12.0 °F - 9.0 °F 88% 30.68 in 3.0 mi Calm Calm - 0.00 in   Overcast
8:53 PM 10.0 °F - 8.1 °F 92% 30.70 in 3.0 mi Calm Calm - N/A   Overcast
9:24 PM 10.4 °F 4.0 °F 8.6 °F 92% 30.51 in 2.5 mi NNW 3.5 mph - N/A   Overcast
9:35 PM 10.4 °F - 8.6 °F 92% 30.51 in 1.5 mi Calm Calm - 0.00 in Snow Light Snow
10:01 PM 10.4 °F - 6.8 °F 85% 30.50 in 2.0 mi Calm Calm - 0.00 in Snow Light Snow
10:39 PM 10.4 °F - 8.6 °F 92% 30.50 in 3.0 mi Calm Calm - 0.00 in   Overcast
10:53 PM 10.9 °F 4.7 °F 8.1 °F 88% 30.67 in 3.0 mi East 3.5 mph - 0.00 in   Overcast
11:53 PM 12.0 °F 5.9 °F 9.0 °F 88% 30.66 in 2.5 mi East 3.5 mph - N/A   Overcast